[[{"header":{"parameterUnit":"m.s-1","parameterCategory":2,"la1":30.2991,"la2":30.254,"lo1":-89.0895,"lo2":-89.0444,"dy":0.0017,"dx":0.0017,"nx":28,"ny":28,"refTime":"2024-06-24T03:00:00:Z","depth":"0","parameterNumber":2,"parameterNumberName":"U-component_of_CURRENTS"},"data":[0,0,0,0,0,0,0,0,0,0,0,0,0,0,0,0,0,0,0,0,0,0,0,0,0,0,0,0,0,0,0,0,0,0,0,0,0,0,0,0,0,0,0,0,0,0,0,0,0,0,0,0,0,0,0,0,0,0,0.421,0.4212,0,0.4319,0.432,0.4321,0.435,0.4349,0.4349,0.4349,0.4464,0.4467,0.447,0,0,0,0,0,0,0,0,0,0,0,0,0,0.4009,0.4012,0.421,0.4212,0.4213,0.4319,0.432,0.4321,0.435,0.4349,0.4349,0.4348,0.4462,0.4466,0.4471,0,0,0,0,0,0,0,0,0,0,0,0,0,0.4103,0.4013,0.421,0.4242,0.4246,0.4318,0.432,0.4322,0.435,0.4349,0.4349,0.4348,0.4461,0.4466,0.4471,0.4517,0,0,0.4487,0.4489,0,0,0,0,0,0,0,0,0.4097,0.411,0.4236,0.424,0.4245,0.4322,0.4291,0.4388,0.435,0.4308,0.4349,0.4348,0.4419,0.4427,0.4446,0.4522,0.4527,0.4488,0.4491,0.4493,0.4494,0,0,0,0,0,0,0,0.4091,0.4105,0.4251,0.4238,0.4243,0.4244,0.4257,0.4309,0.4364,0.4312,0.4315,0.4331,0.4421,0.4441,0.4449,0.4529,0.4487,0.4492,0.4495,0.4497,0.4627,0.4627,0,0,0,0,0,0,0.4084,0.41,0.4248,0.4255,0.417,0.4249,0.4263,0.4296,0.4364,0.4374,0.4331,0.4332,0.4432,0.4443,0.4453,0.4498,0.4493,0.4498,0.4501,0.4627,0.4627,0.4627,0,0,0,0,0,0,0.408,0.4097,0.4243,0.4179,0.4199,0.4253,0.429,0.4299,0.4325,0.4379,0.4388,0.4349,0.4432,0.4446,0.4495,0.4503,0.45,0.4505,0.4626,0.4627,0.4627,0.4595,0,0,0,0,0,0,0.4074,0.4095,0.412,0.418,0.4202,0.4288,0.4292,0.4301,0.4336,0.4338,0.4398,0.4407,0.4433,0.4486,0.45,0.451,0.4509,0.4626,0.4626,0.4627,0.4596,0.4595,0.4593,0,0,0,0,0,0.4066,0.4105,0.4121,0.4139,0.4235,0.4289,0.43,0.4334,0.4338,0.4354,0.4385,0.4406,0.4499,0.4491,0.4507,0.4518,0.4626,0.4626,0.4627,0.4596,0.4595,0.4593,0,0,0,0,0,0,0.4046,0.4113,0.4132,0.4194,0.4238,0.4295,0.4316,0.4339,0.4379,0.4376,0.4419,0.4432,0.4482,0.4504,0.4494,0.4556,0.4563,0.4567,0.4535,0.4534,0.4532,0.4614,0.4513,0,0,0,0,0,0.4051,0.4088,0.4151,0.42,0.4218,0.4267,0.4294,0.4317,0.4359,0.4375,0.4417,0.4455,0.4498,0.4516,0.4563,0.4599,0.4721,0.4614,0.4612,0.4611,0.4687,0.4816,0.4835,0.463,0.463,0.463,0,0,0.406,0.41,0.4124,0.4196,0.4228,0.4274,0.4281,0.4321,0.436,0.4383,0.444,0.4466,0.4511,0.455,0.4572,0.4566,0.474,0.4612,0.461,0.469,0.4819,0.484,0.4858,0.463,0.463,0.463,0,0,0.4098,0.4125,0.4172,0.4201,0.4252,0.4277,0.4289,0.4346,0.4365,0.4418,0.4442,0.4482,0.4538,0.4577,0.46,0.4627,0.4739,0.4616,0.4669,0.4789,0.4809,0.4827,0.5045,0.5084,0.4601,0.4601,0.4601,0,0.4119,0.419,0.4193,0.424,0.4279,0.428,0.4343,0.4356,0.4422,0.4467,0.4432,0.456,0.4565,0.4656,0.4645,0.4631,0.4755,0.4661,0.4792,0.4813,0.4832,0.5051,0.5094,0.46,0.46,0.46,0.46,0,0.4195,0.4247,0.4269,0.4331,0.4357,0.4407,0.4425,0.4454,0.4465,0.4506,0.4595,0.4607,0.4704,0.4668,0.4662,0.479,0.4857,0.4784,0.4801,0.4852,0.5079,0.5124,0.4598,0.4598,0.4598,0.4599,0,0,0.4307,0.4327,0.4347,0.4392,0.4417,0.4466,0.4492,0.4571,0.4648,0.4652,0.4782,0.4784,0.4815,0.4849,0.4836,0.4905,0.5115,0.4901,0.4908,0.5134,0.5485,0.5416,0.546,0.5055,0.5062,0.5067,0.5603,0,0.4398,0.4495,0.4477,0.4577,0.4639,0.4622,0.4669,0.4715,0.475,0.4858,0.4863,0.4973,0.487,0.4931,0.498,0.5096,0.5229,0.4985,0.5394,0.5411,0.5351,0.5505,0.52,0.564,0.5648,0.5655,0.5661,0,0.4531,0.4573,0.4679,0.4739,0.4767,0.4813,0.4923,0.4962,0.5051,0.5088,0.5165,0.5193,0.5322,0.5202,0.5475,0.5329,0.5444,0.5508,0.5528,0.5521,0.5423,0.5582,0.5723,0.5543,0.5731,0.5726,0.5721,0,0.4668,0.4742,0.4832,0.4852,0.4899,0.4954,0.4989,0.5062,0.5129,0.5271,0.5365,0.5485,0.5601,0.5718,0.5808,0.5689,0.6129,0.5976,0.6058,0.6059,0.5918,0.5892,0.5945,0.6233,0.6232,0.623,0.6228,0,0.4806,0.4888,0.4908,0.4962,0.5077,0.5081,0.5217,0.5258,0.5371,0.5469,0.5515,0.5637,0.573,0.5928,0.5983,0.6198,0.6292,0.6177,0.6201,0.5897,0.5865,0.5792,0.5693,0.625,0.6246,0.6242,0.6238,0,0.4933,0.4953,0.5057,0.5118,0.5141,0.523,0.531,0.5394,0.5511,0.5654,0.5717,0.5868,0.6096,0.6224,0.6479,0.6457,0.6463,0.669,0.6375,0.6348,0.615,0.606,0.6088,0.5926,0.6899,0.6901,0.6902,0,0.4987,0.5061,0.5151,0.5186,0.5209,0.5313,0.5357,0.5454,0.5525,0.5755,0.5828,0.611,0.6229,0.663,0.666,0.6877,0.6587,0.6715,0.6379,0.6191,0.6113,0.585,0.5689,0.6234,0.623,0.6226,0.6224,0,0.5059,0.5106,0.5156,0.5235,0.5294,0.5358,0.5435,0.5513,0.562,0.5755,0.593,0.6073,0.6406,0.6428,0.669,0.6732,0.6339,0.6649,0.6512,0.5685,0.5352,0.5184,0.5911,0.6192,0.6196,0.6198,0.62,0.6201,0.5069,0.5111,0.5161,0.5237,0.5295,0.5336,0.5349,0.5427,0.5527,0.5627,0.5856,0.5963,0.6105,0.6385,0.641,0.6231,0.6223,0.6002,0.5966,0.5764,0.5388,0.6101,0.632,0.6323,0.6327,0.6329,0.6332,0,0.5009,0.5051,0.5131,0.5173,0.5196,0.5258,0.532,0.5287,0.5311,0.5469,0.5583,0.563,0.5676,0.5746,0.5716,0.5561,0.5284,0.5404,0.493,0.4846,0.5561,0.5298,0.5226,0.5226,0.5227,0.5227,0.5227,0.5227,0.4959,0.4992,0.5042,0.5039,0.5063,0.5004,0.5008,0.4982,0.5046,0.4988,0.4961,0.5044,0.5198,0.5249,0.5075,0.4967,0.46,0.4417,0.4473,0.4913,0.4961,0.5007,0.4734,0.4545,0.4545,0.3489,0.3481,0.3475]},{"header":{"parameterUnit":"m.s-1","parameterCategory":2,"la1":30.2991,"la2":30.254,"lo1":-89.0895,"lo2":-89.0444,"dy":0.0017,"dx":0.0017,"nx":28,"ny":28,"refTime":"2024-06-24T03:00:00:Z","depth":"0","parameterNumber":3,"parameterNumberName":"V-component_of_CURRENTS"},"data":[0,0,0,0,0,0,0,0,0,0,0,0,0,0,0,0,0,0,0,0,0,0,0,0,0,0,0,0,0,0,0,0,0,0,0,0,0,0,0,0,0,0,0,0,0,0,0,0,0,0,0,0,0,0,0,0,0,0,-0.1089,-0.109,0,-0.1178,-0.1179,-0.118,-0.1227,-0.1227,-0.1228,-0.1228,-0.1327,-0.1329,-0.1331,0,0,0,0,0,0,0,0,0,0,0,0,0,-0.1016,-0.1016,-0.1089,-0.109,-0.1091,-0.1178,-0.1179,-0.118,-0.1227,-0.1227,-0.1228,-0.1228,-0.1326,-0.1329,-0.1332,0,0,0,0,0,0,0,0,0,0,0,0,0,-0.1069,-0.1017,-0.1089,-0.1126,-0.1131,-0.1177,-0.1179,-0.118,-0.1227,-0.1227,-0.1228,-0.1228,-0.1325,-0.1328,-0.1332,-0.1349,0,0,-0.1343,-0.1345,0,0,0,0,0,0,0,0,-0.1066,-0.1072,-0.1119,-0.1124,-0.1129,-0.1193,-0.1189,-0.1237,-0.1227,-0.1189,-0.1228,-0.1228,-0.1283,-0.129,-0.1305,-0.1353,-0.1357,-0.1344,-0.1346,-0.1347,-0.1348,0,0,0,0,0,0,0,-0.1062,-0.1068,-0.1123,-0.1121,-0.1126,-0.1158,-0.1165,-0.1199,-0.1233,-0.1192,-0.1196,-0.1208,-0.1286,-0.1301,-0.1307,-0.1359,-0.1343,-0.1347,-0.1349,-0.135,-0.1417,-0.1417,0,0,0,0,0,0,-0.105,-0.1064,-0.112,-0.1126,-0.1099,-0.1159,-0.1167,-0.1171,-0.1232,-0.1242,-0.1208,-0.121,-0.1295,-0.1303,-0.1311,-0.1288,-0.1347,-0.1351,-0.1353,-0.1418,-0.1417,-0.1417,0,0,0,0,0,0,-0.1048,-0.1054,-0.1117,-0.1099,-0.1109,-0.1159,-0.1164,-0.1172,-0.1185,-0.1244,-0.1254,-0.1211,-0.1295,-0.1306,-0.1338,-0.1294,-0.1352,-0.1356,-0.1418,-0.1417,-0.1417,-0.1273,0,0,0,0,0,0,-0.1046,-0.1053,-0.1044,-0.1097,-0.1109,-0.1126,-0.1164,-0.1174,-0.1193,-0.1196,-0.125,-0.126,-0.1296,-0.1332,-0.1341,-0.1301,-0.1359,-0.1419,-0.1418,-0.1417,-0.1278,-0.1267,-0.1258,0,0,0,0,0,-0.1043,-0.1016,-0.1043,-0.105,-0.1099,-0.1125,-0.1133,-0.1171,-0.1192,-0.1186,-0.1232,-0.1258,-0.1333,-0.1335,-0.1346,-0.1305,-0.1419,-0.1418,-0.1417,-0.1282,-0.1269,-0.1258,0,0,0,0,0,0,-0.0965,-0.102,-0.1051,-0.1039,-0.1078,-0.1133,-0.1125,-0.1164,-0.1196,-0.1197,-0.1259,-0.1271,-0.1283,-0.1324,-0.1324,-0.1326,-0.1378,-0.1379,-0.1272,-0.126,-0.1251,-0.1189,-0.1362,0,0,0,0,0,-0.095,-0.0951,-0.1012,-0.1001,-0.1015,-0.1073,-0.1088,-0.1118,-0.1159,-0.1173,-0.1217,-0.1261,-0.1288,-0.1298,-0.1337,-0.1338,-0.1306,-0.1321,-0.1311,-0.1302,-0.1262,-0.1186,-0.1163,-0.1414,-0.1414,-0.1414,0,0,-0.0915,-0.0948,-0.0947,-0.0987,-0.1016,-0.1009,-0.1081,-0.1091,-0.1082,-0.1178,-0.1175,-0.1232,-0.1286,-0.1285,-0.1292,-0.1311,-0.1212,-0.1301,-0.1292,-0.1256,-0.1182,-0.1157,-0.1135,-0.1413,-0.1413,-0.1413,0,0,-0.0834,-0.0876,-0.0845,-0.0873,-0.0915,-0.0954,-0.0955,-0.1012,-0.1031,-0.1053,-0.111,-0.1137,-0.1195,-0.1207,-0.1224,-0.1185,-0.1169,-0.1208,-0.1091,-0.1019,-0.0995,-0.0975,-0.0876,-0.0848,-0.1192,-0.1192,-0.1192,0,-0.0783,-0.0761,-0.0838,-0.0816,-0.0816,-0.092,-0.0876,-0.0916,-0.0977,-0.0965,-0.1031,-0.1075,-0.1145,-0.1101,-0.1102,-0.1153,-0.11,-0.1126,-0.0997,-0.0977,-0.0958,-0.0863,-0.0833,-0.1185,-0.1186,-0.1186,-0.1187,0,-0.0683,-0.0667,-0.0647,-0.0656,-0.0671,-0.0652,-0.0719,-0.0732,-0.0784,-0.0816,-0.0809,-0.0905,-0.091,-0.0955,-0.1024,-0.0927,-0.0927,-0.0995,-0.101,-0.0922,-0.083,-0.0801,-0.1175,-0.1177,-0.1179,-0.1181,0,0,-0.0539,-0.0567,-0.0552,-0.0529,-0.0581,-0.0572,-0.056,-0.0555,-0.0506,-0.0596,-0.0515,-0.0617,-0.0661,-0.0684,-0.0767,-0.0737,-0.059,-0.0802,-0.0802,-0.067,-0.0382,-0.0404,-0.0376,-0.0623,-0.0618,-0.0614,-0.0359,0,-0.0421,-0.0341,-0.039,-0.0307,-0.027,-0.035,-0.0317,-0.0335,-0.0369,-0.0328,-0.0414,-0.0392,-0.0558,-0.0547,-0.0541,-0.0581,-0.0513,-0.065,-0.0516,-0.0511,-0.0513,-0.0343,-0.0396,-0.0175,-0.0332,-0.0327,-0.0324,0,-0.0282,-0.0255,-0.015,-0.0121,-0.0105,-0.0072,-0.0017,-0.0006,0.0,-0.0017,-0.0017,-0.0089,-0.0067,-0.0231,-0.0185,-0.0257,-0.0288,-0.0332,-0.0324,-0.0368,-0.048,-0.0298,-0.0118,-0.042,-0.0281,-0.0284,-0.0287,0,-0.0125,-0.0071,0.0022,0.0029,0.0037,0.0091,0.0104,0.0113,0.0159,0.0204,0.0261,0.0244,0.0274,0.0223,0.0094,-0.001,0.0162,0.0011,-0.0018,-0.002,-0.0049,-0.0062,-0.0115,0.0099,0.0098,0.0098,0.0097,0,0.0027,0.0105,0.0108,0.0158,0.0284,0.0245,0.038,0.0383,0.044,0.0545,0.0448,0.0548,0.0389,0.042,0.0272,0.0254,0.0327,0.0077,0.0067,-0.0003,-0.0015,-0.0273,-0.0438,0.0107,0.0105,0.0103,0.0102,0,0.0179,0.0183,0.0284,0.0329,0.0358,0.0447,0.0527,0.0616,0.066,0.0806,0.084,0.085,0.0905,0.0762,0.0722,0.0524,0.033,0.0443,0.0381,0.0358,-0.0026,-0.0179,-0.0155,-0.0274,0.0468,0.0469,0.047,0,0.026,0.0329,0.041,0.047,0.0496,0.0607,0.0682,0.0725,0.0814,0.0992,0.1086,0.1194,0.1285,0.1238,0.0949,0.0801,0.0481,0.0586,0.034,0.002,-0.0157,-0.0289,-0.0404,0.0378,0.0378,0.0378,0.0378,0,0.0397,0.0425,0.0492,0.061,0.0703,0.0809,0.0921,0.1031,0.1114,0.1277,0.1503,0.1619,0.1569,0.1425,0.1174,0.0962,0.0345,0.0583,0.0277,-0.0179,-0.0343,-0.0487,0.0146,0.038,0.038,0.038,0.038,0.038,0.0487,0.0553,0.0628,0.0745,0.085,0.0989,0.1104,0.1248,0.1456,0.1728,0.1813,0.2086,0.1761,0.1429,0.1105,0.0399,0.0409,0.0107,-0.0022,-0.0103,-0.0319,0.0333,0.0508,0.0508,0.0509,0.0509,0.0509,0,0.0571,0.0633,0.0748,0.088,0.1008,0.1043,0.1239,0.138,0.1649,0.1993,0.2235,0.2307,0.1845,0.1313,0.0423,-0.0119,-0.038,-0.0444,-0.069,-0.0759,-0.0142,-0.0262,-0.0279,-0.0279,-0.0278,-0.0278,-0.0278,-0.0277,0.0617,0.0722,0.0774,0.0981,0.1083,0.1262,0.1381,0.163,0.1904,0.2368,0.2653,0.2821,0.2404,0.0715,-0.0498,-0.0804,-0.1207,-0.1259,-0.1425,-0.1114,-0.1077,-0.1041,-0.1196,-0.1409,-0.141,-0.2044,-0.2051,-0.2056]}],[{"header":{"parameterUnit":"m.s-1","parameterCategory":2,"la1":30.2991,"la2":30.254,"lo1":-89.0895,"lo2":-89.0444,"dy":0.0017,"dx":0.0017,"nx":28,"ny":28,"refTime":"2024-06-24T03:00:00:Z","depth":"2","parameterNumber":2,"parameterNumberName":"U-component_of_CURRENTS"},"data":[0,0,0,0,0,0,0,0,0,0,0,0,0,0,0,0,0,0,0,0,0,0,0,0,0,0,0,0,0,0,0,0,0,0,0,0,0,0,0,0,0,0,0,0,0,0,0,0,0,0,0,0,0,0,0,0,0,0,0.2913,0.2917,0,0.3109,0.311,0.3111,0.3139,0.3139,0.3139,0.3139,0.3151,0.3151,0.3152,0,0,0,0,0,0,0,0,0,0,0,0,0,0.2722,0.2723,0.2913,0.2917,0.2922,0.3109,0.311,0.3111,0.3139,0.3139,0.3139,0.3139,0.3151,0.3151,0.3152,0,0,0,0,0,0,0,0,0,0,0,0,0,0.283,0.2723,0.2912,0.2973,0.2982,0.3109,0.311,0.3111,0.3139,0.3139,0.3139,0.3139,0.3151,0.3151,0.3152,0.3152,0,0,0.3153,0.3153,0,0,0,0,0,0,0,0,0.2824,0.2835,0.296,0.297,0.298,0.3118,0.3049,0.3123,0.3139,0.3058,0.3139,0.3139,0.3136,0.3138,0.3148,0.3153,0.3153,0.3153,0.3153,0.3153,0.3153,0,0,0,0,0,0,0,0.2816,0.2828,0.297,0.2965,0.2977,0.3048,0.3059,0.3063,0.3075,0.3065,0.3073,0.3127,0.3137,0.3148,0.3148,0.3154,0.3153,0.3153,0.3153,0.3154,0.3206,0.3207,0,0,0,0,0,0,0.2825,0.282,0.2964,0.2978,0.2924,0.3051,0.3064,0.3057,0.3079,0.309,0.3127,0.3128,0.3147,0.3148,0.3149,0.32,0.3153,0.3154,0.3154,0.3205,0.3206,0.3207,0,0,0,0,0,0,0.2818,0.2833,0.2957,0.2924,0.2947,0.3055,0.3047,0.3061,0.3097,0.3132,0.3135,0.3154,0.3147,0.3148,0.318,0.3198,0.3154,0.3154,0.3203,0.3205,0.3207,0.327,0,0,0,0,0,0,0.281,0.2827,0.2837,0.2922,0.295,0.3044,0.305,0.3065,0.3139,0.3142,0.3156,0.3156,0.3147,0.318,0.3181,0.3198,0.3154,0.3202,0.3204,0.3206,0.3266,0.3273,0.3279,0,0,0,0,0,0.2802,0.2856,0.2834,0.2856,0.2952,0.3048,0.3065,0.3132,0.314,0.3159,0.3177,0.3156,0.3193,0.3182,0.3183,0.32,0.3201,0.3203,0.3206,0.3263,0.3272,0.3279,0,0,0,0,0,0,0.2803,0.2868,0.2846,0.2916,0.2969,0.306,0.3119,0.3145,0.3175,0.318,0.3178,0.3181,0.3216,0.3201,0.3188,0.3221,0.319,0.3193,0.3234,0.3242,0.3249,0.3314,0.3155,0,0,0,0,0,0.2797,0.2832,0.2892,0.2946,0.2969,0.3028,0.3084,0.312,0.317,0.3185,0.3196,0.3206,0.3223,0.3229,0.3239,0.3258,0.3323,0.3267,0.3273,0.3279,0.3333,0.3451,0.3475,0.3216,0.3216,0.3216,0,0,0.2815,0.2862,0.2881,0.2947,0.2984,0.3041,0.3056,0.3146,0.3209,0.3179,0.3247,0.3236,0.3237,0.3265,0.3277,0.3256,0.3385,0.3282,0.3287,0.3339,0.3457,0.3483,0.3506,0.3217,0.3217,0.3217,0,0,0.2883,0.2891,0.293,0.2968,0.3049,0.309,0.3116,0.3189,0.3229,0.3275,0.3286,0.3302,0.3301,0.333,0.3336,0.3388,0.3423,0.3366,0.3448,0.356,0.3584,0.3606,0.3719,0.375,0.3361,0.3361,0.3361,0,0.2894,0.2938,0.2966,0.3012,0.3077,0.3107,0.3171,0.322,0.3301,0.3346,0.33,0.3364,0.3341,0.3431,0.3437,0.3408,0.3485,0.3413,0.3574,0.3597,0.3618,0.3729,0.3763,0.3364,0.3364,0.3364,0.3363,0,0.2982,0.3006,0.3045,0.3086,0.3159,0.3225,0.3297,0.3356,0.3381,0.3416,0.3495,0.348,0.3531,0.3497,0.3475,0.3612,0.3623,0.3577,0.3562,0.3649,0.3759,0.3793,0.3369,0.3368,0.3367,0.3366,0,0,0.3016,0.308,0.3091,0.3099,0.3203,0.3264,0.3384,0.3488,0.3572,0.3588,0.3685,0.3694,0.3697,0.371,0.3695,0.3761,0.3939,0.3736,0.374,0.3865,0.422,0.4024,0.4042,0.393,0.3937,0.3942,0.4236,0,0.3055,0.3129,0.3189,0.3266,0.3298,0.3381,0.3494,0.3599,0.3662,0.3747,0.3764,0.3824,0.378,0.3797,0.3876,0.3941,0.4035,0.3866,0.4105,0.4113,0.3941,0.4076,0.3748,0.3965,0.4269,0.4275,0.4279,0,0.3127,0.3155,0.3259,0.3324,0.3354,0.3435,0.3619,0.3712,0.3853,0.391,0.4001,0.4006,0.4148,0.4041,0.4295,0.42,0.4241,0.426,0.427,0.4101,0.3981,0.3926,0.4016,0.4337,0.4332,0.4328,0.4324,0,0.3143,0.3203,0.3293,0.3322,0.3432,0.3522,0.3581,0.3757,0.3842,0.4021,0.4079,0.4254,0.4315,0.4453,0.4506,0.4438,0.4735,0.4641,0.4516,0.4504,0.428,0.4234,0.4817,0.4816,0.4816,0.4815,0.4814,0,0.3174,0.3215,0.3296,0.3332,0.3418,0.352,0.3656,0.3761,0.3921,0.4019,0.4156,0.4269,0.4416,0.456,0.4623,0.4708,0.4867,0.4596,0.4584,0.4284,0.4238,0.4589,0.4558,0.4826,0.4823,0.4821,0.4819,0,0.3172,0.3243,0.3309,0.341,0.3433,0.3499,0.3606,0.3674,0.3892,0.4035,0.4092,0.4324,0.4523,0.4643,0.4846,0.4821,0.4926,0.4891,0.4523,0.4458,0.46,0.4569,0.4841,0.4837,0.4834,0.4831,0.4828,0,0.3163,0.3217,0.3322,0.3353,0.3392,0.347,0.3499,0.3644,0.3721,0.4062,0.41,0.4332,0.4434,0.4687,0.4696,0.4805,0.4871,0.4534,0.4304,0.4651,0.4613,0.4587,0.4562,0.4061,0.4052,0.4046,0.404,0,0.3103,0.3194,0.3234,0.3286,0.3318,0.3345,0.3393,0.3423,0.3641,0.3782,0.398,0.4092,0.4314,0.4255,0.4369,0.4379,0.4493,0.4385,0.4932,0.4047,0.3923,0.388,0.3882,0.3978,0.3984,0.3989,0.3992,0.3994,0.3042,0.3047,0.3122,0.3168,0.3207,0.3196,0.3146,0.3217,0.3278,0.3436,0.3676,0.3777,0.3913,0.387,0.3835,0.3831,0.4091,0.3962,0.3983,0.4011,0.381,0.3679,0.3655,0.366,0.3663,0.3666,0.3669,0,0.2877,0.291,0.2957,0.3002,0.299,0.3077,0.3055,0.2939,0.2913,0.3141,0.3252,0.3084,0.312,0.3286,0.3176,0.32,0.316,0.3093,0.3031,0.3097,0.3155,0.2906,0.2515,0.2511,0.2507,0.2504,0,0,0.2779,0.2747,0.2778,0.275,0.2815,0.2724,0.2671,0.2511,0.2555,0.2498,0.2614,0.2911,0.3159,0.2757,0.2746,0.2616,0.2814,0.2517,0.3454,0.3446,0.3497,0.3685,0.338,0,0,0,0,0]},{"header":{"parameterUnit":"m.s-1","parameterCategory":2,"la1":30.2991,"la2":30.254,"lo1":-89.0895,"lo2":-89.0444,"dy":0.0017,"dx":0.0017,"nx":28,"ny":28,"refTime":"2024-06-24T03:00:00:Z","depth":"2","parameterNumber":3,"parameterNumberName":"V-component_of_CURRENTS"},"data":[0,0,0,0,0,0,0,0,0,0,0,0,0,0,0,0,0,0,0,0,0,0,0,0,0,0,0,0,0,0,0,0,0,0,0,0,0,0,0,0,0,0,0,0,0,0,0,0,0,0,0,0,0,0,0,0,0,0,0.0116,0.0113,0,-0.002,-0.0019,-0.0019,-0.0147,-0.015,-0.0154,-0.0157,-0.0345,-0.0347,-0.0349,0,0,0,0,0,0,0,0,0,0,0,0,0,0.0092,0.0096,0.0116,0.0113,0.0109,-0.002,-0.0019,-0.0019,-0.0146,-0.0151,-0.0155,-0.0159,-0.0345,-0.0347,-0.0349,0,0,0,0,0,0,0,0,0,0,0,0,0,0.0066,0.0098,0.0117,0.0014,0.0002,-0.002,-0.0019,-0.0019,-0.0145,-0.0151,-0.0156,-0.0161,-0.0344,-0.0347,-0.0349,-0.0256,0,0,-0.0357,-0.0358,0,0,0,0,0,0,0,0,0.0068,0.007,0.0033,0.0021,0.0007,-0.0091,-0.0099,-0.0108,-0.0144,-0.0066,-0.0158,-0.0164,-0.0275,-0.0284,-0.0265,-0.0265,-0.0273,-0.0357,-0.0358,-0.0359,-0.036,0,0,0,0,0,0,0,0.007,0.0073,0.0085,0.0029,0.0013,-0.0087,-0.0092,-0.01,-0.0123,-0.0073,-0.0088,-0.0137,-0.0281,-0.0262,-0.0271,-0.0275,-0.0357,-0.0359,-0.036,-0.0361,-0.0412,-0.0412,0,0,0,0,0,0,0.0059,0.0078,0.0089,0.0078,-0.0,-0.0083,-0.0088,-0.0036,-0.0122,-0.0146,-0.0132,-0.0143,-0.0255,-0.0268,-0.0279,-0.0335,-0.0359,-0.0362,-0.0363,-0.0412,-0.0412,-0.0412,0,0,0,0,0,0,0.0061,0.0066,0.0094,0.005,0.0043,-0.0078,-0.0018,-0.0037,-0.0087,-0.017,-0.0192,-0.0176,-0.026,-0.0275,-0.0353,-0.0338,-0.0363,-0.0365,-0.0412,-0.0412,-0.0412,-0.0345,0,0,0,0,0,0,0.0064,0.0071,0.009,0.0054,0.0045,0.006,-0.0016,-0.0036,-0.0116,-0.0131,-0.0212,-0.0232,-0.0266,-0.0349,-0.0356,-0.0342,-0.0367,-0.0412,-0.0412,-0.0412,-0.0348,-0.0343,-0.0339,0,0,0,0,0,0.0065,0.0065,0.0095,0.0091,0.0085,0.0059,0.0049,-0.0046,-0.0113,-0.0112,-0.0202,-0.0233,-0.0352,-0.0351,-0.0359,-0.0346,-0.0413,-0.0412,-0.0412,-0.035,-0.0344,-0.0339,0,0,0,0,0,0,0.0027,0.0051,0.0081,0.0086,0.0079,0.0027,-0.0014,-0.0061,-0.0119,-0.0166,-0.0233,-0.0255,-0.0301,-0.0339,-0.0337,-0.0361,-0.0384,-0.0386,-0.0334,-0.0329,-0.0325,-0.0306,-0.0369,0,0,0,0,0,0.005,0.0078,0.0089,0.0089,0.0098,0.0057,0.002,-0.0031,-0.0096,-0.0129,-0.0186,-0.0254,-0.0283,-0.0331,-0.0347,-0.0372,-0.0388,-0.0369,-0.0364,-0.036,-0.0351,-0.0378,-0.0374,-0.0411,-0.0411,-0.0411,0,0,0.0023,0.0037,0.0047,0.0084,0.0079,0.0095,0.0027,-0.0033,-0.0064,-0.0137,-0.0202,-0.0228,-0.0282,-0.0303,-0.0328,-0.0354,-0.0354,-0.036,-0.0356,-0.0349,-0.0377,-0.0373,-0.037,-0.0411,-0.0411,-0.0411,0,0,-0.001,0.0032,0.0066,0.008,0.0061,0.0054,0.0033,-0.0,-0.0054,-0.009,-0.0157,-0.0193,-0.024,-0.0274,-0.0299,-0.0282,-0.0312,-0.0292,-0.0275,-0.0301,-0.0298,-0.0295,-0.029,-0.0287,-0.0312,-0.0312,-0.0312,0,-0.0037,0.0044,0.0054,0.0092,0.0075,0.0043,0.006,0.0026,-0.0051,-0.0072,-0.0117,-0.0162,-0.0215,-0.0244,-0.0248,-0.0268,-0.0285,-0.029,-0.0293,-0.0292,-0.029,-0.0285,-0.0284,-0.0308,-0.0309,-0.0309,-0.0309,0,-0.0017,0.0045,0.0049,0.0132,0.0107,0.011,0.0076,0.0047,-0.0009,-0.0022,-0.0057,-0.0112,-0.014,-0.0157,-0.0205,-0.0217,-0.023,-0.0264,-0.0302,-0.0282,-0.0279,-0.0278,-0.0304,-0.0305,-0.0306,-0.0307,0,0,-0.0028,0.0066,0.0073,0.0136,0.0132,0.0128,0.0077,0.0078,0.0074,0.0017,0.0023,-0.004,-0.005,-0.0081,-0.0137,-0.0179,-0.018,-0.0227,-0.023,-0.0211,-0.0219,-0.0278,-0.0282,-0.0226,-0.0226,-0.0226,-0.0212,0,0.002,0.0108,0.0115,0.0179,0.0235,0.0192,0.0175,0.0134,0.0106,0.0116,0.0047,0.006,-0.0033,-0.0029,-0.0092,-0.0145,-0.018,-0.0179,-0.0251,-0.0252,-0.0299,-0.0285,-0.0249,-0.0239,-0.0212,-0.0212,-0.0212,0,0.0066,0.0127,0.018,0.0269,0.0289,0.0294,0.0278,0.0264,0.0247,0.0224,0.0196,0.0177,0.0118,0.0048,-0.0065,-0.0066,-0.0137,-0.0189,-0.0191,-0.0269,-0.031,-0.0261,-0.0239,-0.0211,-0.0211,-0.0211,-0.0211,0,0.0064,0.0186,0.0222,0.0243,0.0305,0.0298,0.0332,0.0303,0.0326,0.031,0.0353,0.0269,0.0261,0.0137,0.0009,-0.0026,-0.0095,-0.0151,-0.0264,-0.0267,-0.0262,-0.0266,-0.0215,-0.0215,-0.0215,-0.0215,-0.0215,0,0.0115,0.0172,0.0241,0.0269,0.0353,0.0346,0.0415,0.0418,0.0451,0.055,0.0429,0.0492,0.028,0.0218,0.0068,-0.0093,-0.0055,-0.0248,-0.0274,-0.0237,-0.0239,-0.0244,-0.0248,-0.0215,-0.0215,-0.0215,-0.0215,0,0.0102,0.0144,0.0223,0.0306,0.0352,0.039,0.0529,0.061,0.0592,0.0707,0.0721,0.0669,0.0574,0.0364,0.0198,0.0005,-0.0144,-0.0205,-0.0138,-0.0159,-0.031,-0.031,-0.0334,-0.0336,-0.0338,-0.0339,-0.0341,0,0.0111,0.0137,0.0245,0.0301,0.0349,0.045,0.0564,0.0655,0.076,0.0853,0.0944,0.0881,0.0884,0.0572,0.0227,-0.0064,-0.0107,-0.0239,-0.0323,-0.0302,-0.0325,-0.0322,-0.032,-0.0266,-0.0266,-0.0267,-0.0267,0,0.0142,0.0142,0.0217,0.0347,0.0468,0.0644,0.0823,0.0951,0.1078,0.118,0.1348,0.1365,0.103,0.0732,0.025,0.0049,-0.0211,-0.0262,-0.0234,-0.0265,-0.0244,-0.0264,-0.0263,-0.0271,-0.027,-0.027,-0.027,-0.027,0.0165,0.0225,0.0317,0.0453,0.0585,0.0836,0.105,0.1251,0.1497,0.1674,0.1658,0.1644,0.1227,0.0613,0.0233,-0.0216,-0.0215,-0.037,-0.0365,-0.0361,-0.0379,-0.0366,-0.0415,-0.0416,-0.0416,-0.0416,-0.0417,0,0.0256,0.0336,0.0448,0.0638,0.0824,0.0887,0.123,0.1452,0.1789,0.1864,0.1959,0.1588,0.1209,0.0732,0.0065,-0.0331,-0.035,-0.0446,-0.0376,-0.037,-0.0366,-0.0383,-0.042,-0.0421,-0.0422,-0.0423,0,0,0.0313,0.0467,0.0553,0.086,0.0972,0.1309,0.1544,0.1831,0.1971,0.2081,0.202,0.1875,0.1317,0.084,0.0312,-0.005,-0.0118,-0.0123,-0.0082,0.0069,0.0079,-0.0289,-0.0305,0,0,0,0,0]}],[{"header":{"parameterUnit":"m.s-1","parameterCategory":2,"la1":30.2991,"la2":30.254,"lo1":-89.0895,"lo2":-89.0444,"dy":0.0017,"dx":0.0017,"nx":28,"ny":28,"refTime":"2024-06-24T03:00:00:Z","depth":"4","parameterNumber":2,"parameterNumberName":"U-component_of_CURRENTS"},"data":[0,0,0,0,0,0,0,0,0,0,0,0,0,0,0,0,0,0,0,0,0,0,0,0,0,0,0,0,0,0,0,0,0,0,0,0,0,0,0,0,0,0,0,0,0,0,0,0,0,0,0,0,0,0,0,0,0,0,0.1167,0.1168,0,0.1243,0.1244,0.1245,0.131,0.131,0.1311,0.1311,0.1403,0.1405,0.1407,0,0,0,0,0,0,0,0,0,0,0,0,0,0.103,0.1033,0.1167,0.1168,0.1168,0.1242,0.1244,0.1245,0.131,0.131,0.1311,0.1311,0.1402,0.1404,0.1407,0,0,0,0,0,0,0,0,0,0,0,0,0,0.1099,0.1034,0.1167,0.1207,0.1211,0.1242,0.1244,0.1245,0.1309,0.131,0.1311,0.1311,0.1401,0.1404,0.1407,0.1413,0,0,0.1416,0.1418,0,0,0,0,0,0,0,0,0.1095,0.1104,0.1201,0.1204,0.1209,0.1265,0.1229,0.1301,0.1309,0.1276,0.1311,0.1312,0.1355,0.1362,0.1379,0.1417,0.1421,0.1417,0.1419,0.142,0.1421,0,0,0,0,0,0,0,0.109,0.1101,0.12,0.1201,0.1206,0.1204,0.1216,0.1243,0.1314,0.1279,0.1283,0.1286,0.1358,0.1376,0.1382,0.1422,0.1417,0.1419,0.1421,0.1422,0.1598,0.16,0,0,0,0,0,0,0.1077,0.1097,0.1198,0.1202,0.1149,0.1206,0.1219,0.1249,0.1313,0.1323,0.1285,0.1288,0.1371,0.1378,0.1385,0.15,0.142,0.1423,0.1424,0.1595,0.1598,0.1601,0,0,0,0,0,0,0.1074,0.1086,0.1195,0.1147,0.116,0.1208,0.1241,0.125,0.1299,0.1317,0.1328,0.1328,0.1371,0.1381,0.1441,0.15,0.1424,0.1427,0.1592,0.1596,0.16,0.1662,0,0,0,0,0,0,0.107,0.1086,0.1114,0.1147,0.1162,0.1235,0.124,0.1251,0.1296,0.1303,0.1357,0.1364,0.1373,0.1436,0.1444,0.1503,0.1429,0.1588,0.1594,0.1599,0.1656,0.1668,0.1678,0,0,0,0,0,0.1066,0.1086,0.1115,0.1127,0.1197,0.1236,0.1246,0.1281,0.1298,0.1328,0.1366,0.1364,0.1476,0.144,0.1448,0.151,0.1585,0.1592,0.1598,0.1652,0.1665,0.1677,0,0,0,0,0,0,0.1038,0.1096,0.1128,0.1168,0.1213,0.1247,0.1275,0.1299,0.1353,0.137,0.1387,0.1398,0.1472,0.1485,0.1445,0.1579,0.1536,0.1544,0.1574,0.1587,0.1598,0.161,0.1432,0,0,0,0,0,0.1046,0.1087,0.1137,0.1175,0.1202,0.1249,0.1273,0.1303,0.1344,0.1371,0.1407,0.1455,0.1501,0.1537,0.157,0.164,0.1667,0.1691,0.1702,0.171,0.1729,0.181,0.1829,0.1622,0.1622,0.1622,0,0,0.1042,0.1082,0.1104,0.1173,0.1215,0.126,0.1268,0.132,0.1369,0.1371,0.1456,0.1485,0.1524,0.1601,0.1639,0.1624,0.1787,0.1718,0.1725,0.1739,0.1819,0.1839,0.1856,0.1627,0.1626,0.1625,0,0,0.1049,0.1102,0.1142,0.1182,0.125,0.1283,0.1306,0.1368,0.1416,0.149,0.1508,0.1574,0.1645,0.1689,0.1718,0.181,0.183,0.1833,0.191,0.1989,0.2006,0.2022,0.2089,0.211,0.1851,0.1852,0.1852,0,0.105,0.111,0.1156,0.1203,0.124,0.1298,0.1348,0.1402,0.1476,0.1527,0.153,0.1669,0.169,0.1796,0.1832,0.1834,0.1882,0.1852,0.2002,0.2018,0.2032,0.2098,0.212,0.1855,0.1855,0.1855,0.1854,0,0.1077,0.114,0.1165,0.1254,0.1299,0.1351,0.1423,0.1487,0.155,0.1609,0.1733,0.1778,0.187,0.1889,0.189,0.2019,0.2019,0.1992,0.1963,0.2057,0.212,0.2142,0.1861,0.1859,0.1858,0.1857,0,0,0.1055,0.1167,0.1181,0.1233,0.1334,0.1369,0.1465,0.157,0.1652,0.1744,0.1855,0.1947,0.1998,0.2035,0.206,0.2129,0.2264,0.2119,0.2122,0.2176,0.2452,0.2276,0.2283,0.227,0.2274,0.2277,0.2456,0,0.1078,0.1159,0.1217,0.1307,0.1361,0.1441,0.1531,0.1631,0.1729,0.1848,0.194,0.2053,0.205,0.2114,0.2189,0.2237,0.2326,0.2219,0.2363,0.2367,0.219,0.2303,0.229,0.2472,0.2477,0.2481,0.2484,0,0.109,0.115,0.1235,0.1357,0.1392,0.1458,0.1607,0.1703,0.1875,0.1955,0.2092,0.2163,0.2305,0.2273,0.2452,0.2391,0.2446,0.2473,0.2481,0.2309,0.2232,0.236,0.2524,0.252,0.2517,0.2515,0.2512,0,0.1032,0.1161,0.123,0.1266,0.1412,0.1482,0.1583,0.1748,0.1848,0.2047,0.2137,0.2303,0.2409,0.2505,0.2582,0.2542,0.275,0.2694,0.2597,0.2585,0.2659,0.264,0.2837,0.2836,0.2836,0.2836,0.2835,0,0.1014,0.1067,0.1218,0.1244,0.1352,0.1482,0.163,0.1735,0.1929,0.2054,0.2215,0.2317,0.2476,0.2599,0.2647,0.2695,0.2821,0.2638,0.2628,0.2682,0.2664,0.2675,0.2654,0.2842,0.2841,0.2839,0.2838,0,0.0918,0.102,0.1094,0.1257,0.1322,0.1401,0.1624,0.1726,0.1934,0.2097,0.2168,0.2374,0.2532,0.2664,0.2819,0.2765,0.2823,0.2812,0.2889,0.2875,0.2593,0.2573,0.2721,0.2717,0.2713,0.271,0.2707,0,0.0861,0.0903,0.106,0.1116,0.1193,0.1355,0.1466,0.1692,0.1809,0.21,0.2157,0.238,0.2501,0.2609,0.2729,0.2838,0.2805,0.2821,0.2681,0.2611,0.2587,0.2573,0.2559,0.2701,0.27,0.2699,0.2698,0,0.0751,0.0823,0.088,0.1001,0.1111,0.1226,0.1413,0.1488,0.1765,0.1958,0.2117,0.2225,0.2399,0.2511,0.2628,0.2682,0.2791,0.278,0.2787,0.2656,0.2588,0.2565,0.2555,0.2685,0.2687,0.2688,0.2689,0,0.0656,0.0672,0.0775,0.0876,0.0984,0.1067,0.1193,0.1376,0.1528,0.1874,0.191,0.216,0.236,0.2433,0.2526,0.2581,0.2537,0.2447,0.247,0.2486,0.2322,0.2196,0.2193,0,0,0,0,0,0.0568,0.0597,0.0659,0.0752,0.0843,0.0925,0.114,0.1289,0.1569,0.1635,0.1785,0.1942,0.21,0.2218,0.2233,0.2399,0.2522,0.2401,0.2421,0.2611,0.2626,0.2452,0,0,0,0,0,0,0.0514,0.056,0.0609,0.0627,0.0673,0.0774,0.0901,0.1094,0.1184,0.1471,0.1582,0.1794,0.1986,0.2064,0.2177,0.2218,0.2188,0.2566,0.2561,0.2602,0.2616,0.2628,0.2455,0,0,0,0,0]},{"header":{"parameterUnit":"m.s-1","parameterCategory":2,"la1":30.2991,"la2":30.254,"lo1":-89.0895,"lo2":-89.0444,"dy":0.0017,"dx":0.0017,"nx":28,"ny":28,"refTime":"2024-06-24T03:00:00:Z","depth":"4","parameterNumber":3,"parameterNumberName":"V-component_of_CURRENTS"},"data":[0,0,0,0,0,0,0,0,0,0,0,0,0,0,0,0,0,0,0,0,0,0,0,0,0,0,0,0,0,0,0,0,0,0,0,0,0,0,0,0,0,0,0,0,0,0,0,0,0,0,0,0,0,0,0,0,0,0,0.06,0.06,0,0.0561,0.0561,0.056,0.0519,0.0519,0.0519,0.0518,0.0447,0.0445,0.0444,0,0,0,0,0,0,0,0,0,0,0,0,0,0.0593,0.0593,0.06,0.06,0.06,0.0562,0.0561,0.056,0.0519,0.0519,0.0519,0.0518,0.0447,0.0445,0.0443,0,0,0,0,0,0,0,0,0,0,0,0,0,0.0576,0.0593,0.06,0.0577,0.0575,0.0562,0.0561,0.056,0.0519,0.0519,0.0518,0.0518,0.0448,0.0446,0.0443,0.0435,0,0,0.0435,0.0434,0,0,0,0,0,0,0,0,0.0577,0.0576,0.0581,0.0579,0.0577,0.0548,0.0532,0.0518,0.0519,0.0537,0.0518,0.0518,0.048,0.0475,0.0464,0.0432,0.0429,0.0435,0.0434,0.0433,0.0432,0,0,0,0,0,0,0,0.0578,0.0577,0.0581,0.0581,0.0578,0.0554,0.0551,0.0529,0.0508,0.0535,0.0533,0.0535,0.0478,0.0467,0.0462,0.0428,0.0435,0.0433,0.0432,0.0431,0.0361,0.0361,0,0,0,0,0,0,0.0593,0.0578,0.0582,0.058,0.058,0.0555,0.0551,0.0554,0.0508,0.0502,0.0535,0.0533,0.0471,0.0465,0.0459,0.0445,0.0433,0.043,0.0429,0.0362,0.0361,0.0361,0,0,0,0,0,0,0.0593,0.0594,0.0584,0.0581,0.0579,0.0556,0.0559,0.0554,0.0552,0.0509,0.0502,0.054,0.047,0.0463,0.0446,0.0442,0.0429,0.0427,0.0362,0.0362,0.0361,0.0419,0,0,0,0,0,0,0.0593,0.0594,0.0606,0.0582,0.0579,0.0583,0.056,0.0554,0.0554,0.0551,0.0511,0.0503,0.047,0.045,0.0443,0.0439,0.0425,0.0362,0.0362,0.0361,0.0417,0.042,0.0423,0,0,0,0,0,0.0593,0.0611,0.0607,0.0608,0.0596,0.0584,0.0579,0.0559,0.0555,0.0555,0.0529,0.0505,0.044,0.0448,0.044,0.0435,0.0363,0.0362,0.0361,0.0416,0.042,0.0423,0,0,0,0,0,0,0.0611,0.0608,0.0603,0.0619,0.0607,0.0578,0.0582,0.0571,0.0551,0.055,0.051,0.05,0.048,0.0452,0.0461,0.041,0.0394,0.0391,0.0438,0.0441,0.0444,0.0441,0.0423,0,0,0,0,0,0.0624,0.0637,0.0623,0.0636,0.0633,0.0611,0.0608,0.0594,0.0573,0.0564,0.0537,0.0502,0.0469,0.0453,0.0421,0.0403,0.0348,0.039,0.0393,0.0395,0.0386,0.0299,0.0293,0.0358,0.0358,0.0358,0,0,0.0636,0.0636,0.0644,0.0641,0.063,0.0626,0.0607,0.0606,0.06,0.056,0.0548,0.0517,0.0468,0.0441,0.0429,0.0419,0.035,0.0394,0.0397,0.0386,0.0298,0.0291,0.0286,0.0358,0.0358,0.0358,0,0,0.0653,0.0665,0.0674,0.067,0.0663,0.0649,0.0655,0.0633,0.0622,0.061,0.0573,0.0542,0.0503,0.0459,0.0433,0.0432,0.037,0.0423,0.0433,0.035,0.0343,0.0337,0.0269,0.0256,0.0421,0.0422,0.0422,0,0.0665,0.0678,0.0675,0.0678,0.0682,0.0663,0.0669,0.0653,0.0629,0.0617,0.0612,0.0535,0.0504,0.0453,0.0451,0.0438,0.0383,0.043,0.0353,0.0346,0.0338,0.0269,0.0254,0.0424,0.0424,0.0424,0.0423,0,0.0679,0.0695,0.0702,0.0702,0.0704,0.0709,0.0692,0.0688,0.0679,0.0652,0.0613,0.0564,0.0514,0.0499,0.0477,0.0411,0.0387,0.0371,0.0348,0.0335,0.0263,0.0247,0.0428,0.0427,0.0426,0.0426,0,0,0.0686,0.0708,0.0712,0.0724,0.0722,0.0725,0.0723,0.0706,0.0701,0.0662,0.0637,0.0578,0.0547,0.0514,0.0476,0.0406,0.0319,0.0371,0.0366,0.0309,0.0135,0.0138,0.0119,0.0286,0.0283,0.0281,0.011,0,0.0695,0.0726,0.0728,0.0751,0.0765,0.0756,0.0762,0.0746,0.0719,0.0688,0.0621,0.0585,0.0553,0.0535,0.0457,0.0353,0.0276,0.0367,0.015,0.0143,0.0151,0.01,0.0272,0.0097,0.0093,0.009,0.0088,0,0.0702,0.0727,0.0766,0.0792,0.0798,0.0809,0.0815,0.0816,0.0765,0.0742,0.0678,0.062,0.0522,0.0501,0.0297,0.0354,0.0248,0.0164,0.0154,0.0122,0.0114,0.0106,0.0057,0.006,0.0062,0.0064,0.0066,0,0.0724,0.0749,0.0791,0.08,0.0826,0.0843,0.0856,0.0835,0.0846,0.0773,0.076,0.0622,0.0571,0.0403,0.0239,0.0256,0.0007,0.0007,-0.0096,-0.0096,-0.007,-0.0062,-0.0151,-0.0151,-0.015,-0.015,-0.0149,0,0.0737,0.0764,0.0809,0.0836,0.0888,0.0887,0.0928,0.0917,0.0899,0.0903,0.0797,0.0754,0.0542,0.0385,0.0223,0.0009,-0.0015,-0.0115,-0.0151,-0.0039,-0.0026,-0.0081,-0.0071,-0.0156,-0.0155,-0.0154,-0.0152,0,0.0749,0.078,0.0832,0.0883,0.0908,0.0949,0.1009,0.1027,0.1004,0.1002,0.0985,0.0837,0.0628,0.0407,0.0129,0.0008,-0.0207,-0.0273,-0.0139,-0.0162,-0.025,-0.0235,-0.0418,-0.0419,-0.0421,-0.0422,-0.0423,0,0.0762,0.0793,0.0886,0.0934,0.0963,0.1028,0.1082,0.1092,0.1108,0.1051,0.1045,0.0858,0.0734,0.0341,0.0105,-0.0232,-0.0261,-0.0371,-0.0316,-0.0266,-0.0283,-0.0266,-0.0249,-0.0425,-0.0425,-0.0426,-0.0426,0,0.0775,0.0816,0.0865,0.0983,0.1054,0.1132,0.1197,0.1211,0.1211,0.1194,0.1081,0.0879,0.0642,0.0341,0.0079,-0.0154,-0.0305,-0.0386,-0.0384,-0.0333,-0.0277,-0.0288,-0.0271,-0.0431,-0.043,-0.043,-0.0429,0,0.0789,0.0829,0.0914,0.1004,0.1107,0.1189,0.1227,0.1235,0.1252,0.1181,0.1137,0.0885,0.0738,0.038,0.0134,-0.0099,-0.0145,-0.0201,-0.021,-0.0208,-0.0088,0.0017,-0.0098,0,0,0,0,0,0.0791,0.0834,0.0925,0.1028,0.1132,0.12,0.1279,0.13,0.1295,0.123,0.1186,0.0966,0.0596,0.0428,0.0194,0.0105,-0.0191,-0.0176,-0.026,-0.0456,-0.0451,-0.0346,0,0,0,0,0,0,0.0788,0.087,0.0914,0.1029,0.1103,0.1224,0.1279,0.1286,0.1244,0.1203,0.1006,0.0917,0.0553,0.0729,0.0191,0.0119,0.0037,-0.0347,-0.0352,-0.046,-0.0455,-0.045,-0.034,0,0,0,0,0]}]]